GFSFLT1_925_temp_297.txt.gz
Temp
21 20 20 19 18 18 18 17 18 18 18 17 17 17 17 17 17 18 17 17 17 17 17 17 17 16 16 15 14 12 12 11
21 20 20 19 18 17 17 17 18 18 17 17 16 16 16 16 16 17 16 17 17 16 16 16 16 15 15 15 12 11 10 9
20 19 19 17 17 17 17 17 18 17 17 16 16 16 15 16 16 16 16 16 16 16 16 16 16 15 15 14 12 11 10 10
20 19 19 18 17 17 17 18 18 18 17 17 16 15 14 14 14 15 15 15 15 15 15 15 15 15 14 14 12 11 11 9
21 19 18 18 17 16 16 17 17 17 18 17 17 16 15 14 14 15 15 14 14 14 14 14 14 14 14 13 12 11 11 11
20 20 19 18 17 16 16 16 16 17 17 17 17 15 15 14 14 14 13 13 13 14 14 14 13 13 13 12 12 11 10 11
20 19 19 18 17 16 15 15 15 16 16 16 16 15 14 13 12 12 12 12 12 12 13 12 12 12 12 12 11 11 10 11
20 19 18 18 17 15 15 14 14 14 14 15 14 14 16 15 14 13 13 12 11 11 12 11 11 11 11 11 11 11 11 10
20 19 18 18 16 15 14 14 14 13 12 12 12 13 14 14 15 13 12 12 10 11 10 10 10 10 11 10 10 10 10 9
18 18 18 17 16 14 14 13 14 13 12 11 12 12 13 13 13 12 11 11 11 10 10 9 9 9 9 9 9 8 8 8
14 15 17 17 17 15 13 13 13 13 12 11 11 11 12 12 12 12 11 10 10 10 9 8 8 8 8 8 7 7 7 6
13 14 14 17 16 14 13 13 13 12 12 11 11 11 11 11 11 11 10 10 10 9 8 8 8 7 7 6 5 6 6 5
12 13 14 16 15 14 13 12 12 11 11 10 10 10 10 11 10 10 10 10 9 9 8 7 6 6 7 6 5 5 5 4
11 11 11 12 13 12 12 12 11 11 11 10 9 9 9 9 9 9 10 10 9 8 7 6 6 6 5 5 5 5 4 4
10 10 10 10 11 11 11 11 11 10 10 10 9 8 8 9 9 9 9 9 8 7 7 6 5 5 4 4 5 4 5 5
9 9 9 8 8 9 10 10 10 9 9 8 8 8 8 8 9 9 9 8 8 7 6 6 5 4 4 4 4 3 3 3
8 8 8 8 8 7 8 9 10 9 9 8 8 7 7 7 7 8 8 8 7 6 5 5 4 4 5 5 4 3 2 2
8 8 8 7 7 7 7 8 9 9 9 8 7 7 6 7 7 7 7 7 6 6 6 5 5 4 5 5 5 3 2 2
8 7 7 7 7 7 7 8 8 8 9 8 7 6 6 6 6 6 6 7 6 6 5 5 5 4 5 5 4 4 3 3

GFSFLT1_925_temp_303.txt.gz
Temp
27 26 27 27 26 25 23 22 22 21 21 22 23 22 23 23 23 22 20 21 20 21 21 20 20 21 20 20 20 19 18 18
27 26 26 26 26 24 23 22 22 21 21 22 23 22 23 22 22 22 20 20 19 20 20 19 20 20 20 19 18 18 18 17
29 26 26 26 26 24 23 23 22 21 22 23 23 23 22 22 22 20 20 19 19 19 20 19 19 19 18 17 17 18 17 16
28 27 26 25 26 24 24 23 22 21 23 22 23 22 22 21 21 19 19 18 18 18 18 18 18 18 17 16 17 17 17 16
27 27 26 25 25 23 23 23 22 22 22 22 22 22 21 21 21 20 19 18 18 17 17 17 16 17 17 16 16 17 17 17
28 27 25 24 24 23 22 22 22 21 21 22 22 22 21 21 21 20 18 17 17 17 16 16 16 16 17 16 16 16 16 17
29 27 26 25 24 22 22 22 22 21 21 21 20 20 23 23 21 19 18 17 16 16 15 15 15 16 15 16 15 15 16 16
29 27 26 25 24 22 22 21 21 20 19 19 19 19 21 22 20 19 19 17 16 15 14 14 14 14 14 15 14 14 15 15
27 25 26 24 23 21 20 19 20 18 18 18 18 19 20 21 20 19 18 17 14 13 13 13 14 13 13 13 13 14 14 14
25 25 24 25 23 22 19 17 18 19 19 18 18 18 18 19 18 17 15 13 12 12 12 13 12 12 12 12 13 13 13 12
23 23 23 23 23 22 17 16 17 18 17 16 16 17 17 16 15 14 14 12 11 11 11 11 10 11 11 11 11 11 11 11
21 19 22 22 20 18 18 16 15 15 15 15 15 15 14 13 14 14 13 11 10 10 10 10 10 10 10 11 11 11 11 11
20 18 16 14 13 15 16 16 16 15 14 14 14 13 13 13 12 11 11 10 10 10 9 8 9 9 10 10 10 10 10 10
19 19 18 15 13 12 13 13 14 14 13 13 12 12 12 12 11 10 10 10 10 9 9 9 9 9 9 9 10 10 10 10
18 17 17 16 16 16 13 12 12 12 12 12 12 11 11 10 10 9 9 8 8 8 8 8 8 8 9 9 10 9 10 10
16 16 17 16 16 16 16 15 12 11 11 10 10 10 10 9 9 9 8 8 8 7 8 9 7 8 8 9 9 9 9 9
15 16 16 15 15 16 16 15 15 13 11 10 9 9 9 9 8 8 8 7 7 6 6 6 5 7 8 9 9 9 9 8
14 15 15 14 15 15 15 15 14 15 12 11 9 8 8 8 8 7 7 7 6 6 7 6 7 8 9 8 8 9 8 8
14 14 13 13 14 14 14 15 15 14 15 11 10 8 7 7 7 7 7 7 7 7 8 7 8 9 8 8 8 8 8 8

GFSFLT1_925_temp_306.txt.gz
Temp
28 28 29 28 26 24 23 23 22 21 21 22 23 23 23 23 23 22 22 22 22 22 22 21 21 21 20 20 20 19 18 18
28 27 28 28 26 24 23 23 22 21 21 22 23 22 22 23 23 22 21 21 21 21 21 20 21 21 20 20 19 19 18 17
27 26 27 27 25 23 22 22 22 21 21 22 23 22 23 23 23 21 21 20 20 20 20 19 20 20 20 19 18 18 17 16
27 26 26 26 26 23 23 22 21 21 22 22 23 23 23 23 22 21 20 20 19 20 20 19 19 19 18 18 18 18 17 16
27 26 25 25 26 24 23 22 21 21 22 22 23 22 22 22 21 20 19 19 19 19 19 19 18 18 17 17 17 17 17 16
28 26 25 26 25 23 23 22 22 21 22 23 23 22 22 22 22 20 19 18 18 18 18 17 17 17 17 16 17 17 17 17
29 27 26 26 25 23 23 23 22 22 21 22 22 22 22 21 21 20 19 17 17 17 17 16 16 16 17 16 16 16 17 17
22 27 26 25 25 23 22 22 22 22 21 21 22 22 22 22 20 19 18 17 17 16 16 15 15 16 16 16 16 15 16 16
23 24 26 25 24 23 22 22 22 22 21 21 21 21 21 21 20 19 18 17 17 16 15 15 15 15 15 15 14 14 15 15
20 21 24 24 24 22 21 21 21 21 20 20 19 19 21 20 20 19 19 18 16 15 14 14 14 14 14 13 14 14 14 14
22 19 18 19 23 22 21 21 19 19 19 19 19 19 19 19 19 19 18 16 16 14 12 13 13 13 12 13 13 13 13 13
20 18 15 15 18 17 19 20 18 17 17 17 17 17 17 17 17 15 16 15 14 12 12 12 11 11 11 12 12 12 12 12
19 18 15 13 13 15 16 16 16 16 16 16 16 15 15 16 15 15 15 15 13 11 11 11 11 11 11 11 11 11 11 11
19 18 16 14 13 13 13 13 15 15 15 15 15 15 14 14 14 14 14 12 10 10 10 10 10 10 10 11 11 10 11 11
18 17 17 16 15 13 12 12 13 13 14 14 13 13 12 12 12 12 11 10 10 9 9 10 10 11 11 11 10 10 10 10
17 17 16 17 17 16 14 13 12 11 12 12 12 12 11 11 10 10 10 9 9 9 9 9 9 9 9 9 10 10 10 10
16 16 16 16 16 16 16 16 13 11 11 10 10 10 10 10 10 9 9 8 8 8 8 9 8 7 8 9 9 9 10 9
15 15 15 15 15 16 15 15 13 12 11 10 9 9 9 9 9 8 8 8 7 8 8 8 7 7 7 8 9 9 9 9
14 14 14 14 15 15 15 15 15 12 12 11 9 8 8 8 8 8 8 7 7 7 7 7 7 8 8 8 9 9 9 8

GFSFLT1_925_temp_309.txt.gz
Temp
26 25 24 23 22 22 22 22 22 22 22 22 22 23 23 22 22 22 22 22 22 22 22 22 21 21 20 20 19 18 17 17
26 26 25 24 22 22 22 22 22 22 22 22 22 22 23 22 22 22 22 22 22 22 22 21 21 21 20 20 19 18 17 16
25 24 25 24 22 22 21 21 22 22 22 22 22 22 23 22 22 22 22 21 21 20 21 21 21 20 20 19 19 17 17 16
25 25 25 23 22 22 21 21 21 21 21 22 22 22 23 21 22 21 21 21 21 20 20 20 20 20 20 19 18 18 16 16
25 25 25 23 22 22 21 20 20 20 21 21 21 21 21 21 21 21 21 20 20 20 19 20 19 19 19 19 18 18 17 16
25 25 25 23 22 22 22 20 20 20 21 21 22 21 21 22 21 20 19 19 19 19 19 19 19 18 18 18 17 17 17 17
25 25 26 24 22 22 21 20 20 20 20 21 21 21 22 21 20 20 19 19 18 18 18 18 18 18 18 17 17 17 17 17
24 23 23 23 22 22 21 21 20 20 20 20 21 22 22 21 20 19 19 18 18 18 18 17 17 17 17 17 16 16 16 16
23 22 20 21 21 22 21 20 20 20 20 20 21 22 21 21 21 20 19 18 18 17 17 17 16 16 16 16 16 16 16 16
19 19 20 19 21 21 21 20 20 20 20 20 20 21 20 21 20 20 19 18 17 17 16 16 16 15 15 15 15 15 15 15
16 16 17 17 19 19 21 21 20 20 20 20 21 21 21 21 20 19 18 18 17 16 16 15 14 15 15 15 14 14 14 14
14 14 14 17 18 18 18 19 21 20 20 20 20 20 19 20 19 18 18 17 16 16 15 14 13 14 14 14 13 13 13 13
13 14 13 16 16 16 16 15 16 17 17 18 17 18 18 18 19 18 17 16 16 15 14 13 13 13 13 12 12 13 13 12
13 13 14 13 13 13 15 13 15 16 15 16 16 16 16 14 15 15 14 15 15 14 13 12 12 12 12 12 12 12 12 12
14 13 13 13 13 12 12 12 14 14 15 15 15 15 16 14 13 15 15 14 13 12 11 11 12 11 11 11 11 11 11 11
14 13 14 15 13 13 12 12 12 13 13 13 12 12 12 13 12 11 11 11 11 11 10 11 11 10 10 11 11 11 10 10
13 13 13 14 15 14 13 11 11 11 11 11 11 11 11 11 11 11 10 10 10 10 9 9 10 10 10 11 10 10 10 11
12 12 11 12 13 14 13 12 11 11 10 9 9 10 10 10 10 10 9 9 9 8 8 9 9 9 10 10 9 10 10 10
11 10 11 11 12 13 13 12 11 11 10 9 9 9 9 9 9 9 8 8 8 8 8 8 8 9 9 9 9 9 9 9

GFSFLT1_925_temp_315.txt.gz
Temp
20 19 19 18 18 17 17 17 17 17 18 18 18 18 19 19 20 20 20 20 20 20 21 20 20 19 18 17 17 16 15 14
21 20 19 19 18 18 17 17 17 17 17 17 17 18 18 19 19 20 20 20 20 20 20 20 19 18 19 18 17 15 13 13
21 20 20 19 19 18 18 18 17 17 17 18 18 18 19 20 20 20 21 20 20 20 20 20 19 18 18 17 17 14 13 14
22 21 20 20 19 19 18 18 18 17 18 18 18 18 19 19 20 20 21 21 21 21 21 20 20 19 19 18 17 16 13 14
22 21 21 20 20 19 19 19 19 18 18 18 18 18 19 18 19 20 21 20 21 21 22 21 20 20 19 18 17 17 16 14
22 21 22 21 20 20 19 19 19 19 18 18 18 19 19 19 19 19 20 20 21 21 21 21 20 20 19 18 17 17 18 16
22 22 22 21 21 20 20 20 19 19 19 19 19 19 19 19 19 19 19 20 21 21 21 20 20 20 19 19 19 18 18 17
22 22 21 21 21 20 20 20 20 19 19 19 19 20 20 20 18 18 18 18 19 20 20 20 20 20 20 19 18 18 17 17
23 21 21 21 21 20 20 19 19 19 19 19 20 20 20 20 20 18 18 18 19 20 20 20 20 20 19 19 19 18 18 17
22 21 21 21 20 20 20 19 19 18 19 19 19 20 19 20 20 20 19 19 19 20 20 19 19 19 19 19 18 18 17 17
21 21 20 20 20 20 19 19 18 18 18 18 18 19 19 20 20 19 20 19 19 20 19 19 19 18 18 18 17 17 16 16
14 16 18 19 19 19 18 18 18 17 18 17 17 17 18 19 20 19 20 19 19 20 19 19 18 18 17 17 16 16 15 15
14 14 14 16 17 17 17 17 17 17 17 16 16 17 17 18 19 19 19 19 19 19 19 19 18 17 16 16 16 15 14 13
13 14 14 14 14 15 16 16 16 16 16 16 16 16 16 15 15 14 15 16 16 16 16 16 16 16 15 15 15 13 12 12
11 11 13 13 13 13 13 13 15 15 15 15 15 15 15 14 14 13 13 13 14 14 14 14 15 15 14 14 13 12 11 11
10 10 11 12 12 12 12 12 13 14 15 15 14 15 15 15 16 15 14 13 13 12 12 12 13 13 12 12 12 11 10 10
10 10 10 11 11 11 11 10 11 13 13 13 13 13 13 13 14 15 15 13 13 12 11 11 11 12 11 11 10 10 10 11
10 10 10 10 10 10 10 10 9 10 10 11 13 13 13 13 14 15 13 13 12 11 12 12 12 13 11 10 10 9 9 10
9 9 9 8 9 10 10 10 9 9 9 9 10 11 12 11 11 11 11 11 11 11 11 11 11 11 9 9 8 8 9 11

GFSFLT1_925_temp_318.txt.gz
Temp
20 19 18 17 16 15 15 16 16 17 17 17 17 17 18 18 18 19 19 19 19 19 20 19 18 17 17 17 17 16 15 13
20 19 18 17 17 16 15 15 16 16 15 15 15 16 17 18 18 18 19 19 19 19 19 19 18 18 18 18 16 16 13 13
20 19 18 17 17 16 16 16 16 16 15 15 15 16 16 18 19 18 19 19 19 19 19 19 19 18 17 17 17 13 12 12
20 19 18 17 17 17 16 16 16 16 16 16 16 16 17 17 18 19 19 19 19 19 19 19 19 18 17 17 17 17 13 12
20 19 19 18 18 17 17 17 16 16 17 16 16 16 17 17 17 18 19 19 19 20 20 20 19 18 17 17 17 17 17 12
21 20 19 19 18 18 17 17 17 16 17 17 17 17 18 18 18 19 19 19 20 20 20 20 18 18 18 18 17 17 16 15
21 21 20 20 19 18 18 18 18 17 17 17 17 17 18 18 18 18 19 19 19 20 20 19 19 19 18 18 18 17 17 16
22 21 20 20 19 19 18 18 18 17 17 17 17 18 18 18 18 18 18 18 19 20 19 18 18 19 19 18 18 17 17 16
22 21 21 20 20 19 18 18 18 18 17 17 18 18 18 18 19 18 19 18 19 20 19 20 20 20 19 19 18 18 17 16
21 21 20 21 20 19 19 18 18 18 18 18 18 18 18 18 18 19 19 19 20 20 19 20 20 19 19 19 18 17 17 17
18 21 20 20 20 19 19 19 19 18 18 18 18 18 18 18 19 19 19 20 20 20 20 19 20 19 19 18 18 17 17 16
15 15 19 19 20 19 18 18 18 18 18 18 17 17 17 17 17 19 19 20 20 20 20 19 19 19 18 17 17 17 16 15
13 15 14 15 17 18 17 18 18 17 17 17 17 16 16 17 18 19 19 19 19 20 19 19 19 18 17 17 16 16 16 15
12 13 14 13 13 15 16 16 17 17 16 16 15 15 16 16 17 17 18 17 17 16 17 17 17 17 17 17 16 15 15 15
11 12 13 13 13 13 14 15 16 16 15 15 14 14 15 16 16 16 16 16 16 15 14 14 14 13 13 14 14 14 14 13
10 10 11 12 12 12 13 13 14 14 14 14 14 14 14 15 15 15 15 16 16 16 15 14 13 12 13 12 12 12 12 12
9 8 9 9 10 10 10 12 13 14 14 14 14 13 14 14 14 14 15 16 15 15 14 13 13 12 12 12 12 11 11 10
8 8 7 7 7 9 9 9 11 12 12 12 12 13 13 13 13 14 14 14 14 13 13 13 11 11 11 11 12 11 10 10
7 7 7 7 7 8 8 8 8 8 9 10 12 12 12 13 12 12 12 11 11 11 11 11 11 10 11 11 11 10 9 9